User: anonymous   Login
Location: Unspecified
(0.0000°N, 0.0000°E)
Time: 09:33:17
(UTC+00:00)
Language:

NOSS 3-4 (A) - Orbit

View from above orbital plane
View from above orbital plane
View from above satellite
View from above satellite

Ground track
Ground track

The orbit data is extracted from the following two-line orbital elements,

1 31701U 07027A   18019.76542858 0.00000000  00000-0  00000-0 0    05
2 31701  63.4002 251.2112 0207000  22.0918 337.9082 13.40743128    09
Epoch (UTC): 19 January 2018 18:22:13
Eccentricity: 0.0207000
inclination: 63.4002°
perigee height: 951 km
apogee height: 1261 km
right ascension of ascending node: 251.2112°
argument of perigee: 22.0918°
revolutions per day: 13.40743128
mean anomaly at epoch: 337.9082°
orbit number at epoch: 0

The dashed part of the orbit path shows where the satellite is in the earth's shadow,  

DLR